{"data":{"norad_id":68058,"intl_designator":"2026-041U","name":"STARLINK-36899","alt_names":[],"object_type":"PAYLOAD","status":"ACTIVE","operator":null,"country":"US","launch_date":"2026-03-02","launch_site_code":"AFETR","launch_vehicle":null,"mission":null,"orbit_class":"UNKNOWN","rcs_meters":null,"size_class":null,"mass_kg":null,"dimensions":null,"purposes":["comms"],"wikipedia_slug":null,"has_3d_model":false,"image_url":null,"decayed_at":null,"tle_current":{"epoch":"2026-09-19T10:36:22.062528Z","epoch_age_seconds":151078,"freshness":"FRESH","line1":"1 68058U 26041U   26262.44192202  .00019156  00000+0  57651-3 0  9990","line2":"2 68058  53.1594 226.3081 0000586  82.4056 277.7014 15.34405563 31101","mean_motion":15.34405563,"eccentricity":5.86e-5,"inclination_deg":53.1594,"raan_deg":226.3081,"arg_perigee_deg":82.4056,"mean_anomaly_deg":277.7014,"bstar":0.00057651,"rev_number":3110,"period_min":93.847417835515,"perigee_km":462.28583357955,"apogee_km":463.08757811787,"semimajor_km":6840.8237058487,"source":"CELESTRAK","updated_at":"2026-09-20T09:00:43.750681Z"}}}